Cecil Field, FL

4:42 PM EDT on March 30, 2017 (GMT -0400)
Cecil

Weather History for KVQQ - August, 2013

Change the Weather History Date:

Friday, August 30, 2013

  Actual Average (KNIP) Record (KNIP)
Temperature  
Mean Temperature 83 °F -  
Max Temperature 95 °F 87 °F 96 °F (2014)
Min Temperature 71 °F 73 °F 73 °F (1997)
Cooling Degree Days 18    
Growing Degree Days 33 (Base 50)    
Moisture  
Dew Point 74 °F    
Average Humidity 90    
Maximum Humidity 100    
Minimum Humidity 47    
Precipitation  
Precipitation 0.03 in - - ()
Sea Level Pressure  
Sea Level Pressure 29.94 in    
Wind  
Wind Speed 2 mph (NW)    
Max Wind Speed 18 mph    
Max Gust Speed 31 mph    
Visibility 6 miles    
Events Rain , Thunderstorm    
Averages and records for this station are not official NWS values.
T = Trace of Precipitation, MM = Missing Value Source: NWS Daily Summary

Daily Weather History Graph

Daily Weather History Graph

Search for Another Location

Airport or City:

Trip Planner

Search our weather history database for the weather conditions in past years. The results will help you decide how hot, cold, wet, or windy it might be!

Date:

Astronomy

Aug. 30, 2013 Rise Set
Actual Time 7:03 AM EDT 7:52 PM EDT
Civil Twilight 6:38 AM EDT 8:16 PM EDT
Nautical Twilight 6:09 AM EDT 8:45 PM EDT
Astronomical Twilight 5:40 AM EDT 9:14 PM EDT
Moon 1:53 AM EDT 3:54 PM EDT
Length of Visible Light 13h 37m
Length of Day
12h 48m
Waning Crescent, 29% of the Moon is Illuminated
Aug 30
Waning Crescent
Sep 5
New
Sep 12
First Quarter
Sep 19
Full
Sep 26
Last Quarter

Hourly Weather History & Observations

Time (EDT) Temp. Heat Index Dew Point Humidity Pressure Visibility Wind Dir Wind Speed Gust Speed Precip Events Conditions
12:15 AM 73.4 °F - 71.6 °F 94% 29.96 in 7.0 mi Calm Calm - N/A   Clear
12:35 AM 73.4 °F - 71.6 °F 94% 29.97 in 7.0 mi Calm Calm - N/A   Clear
12:55 AM 73.4 °F - 71.6 °F 94% 29.96 in 7.0 mi Calm Calm - N/A   Clear
1:15 AM 73.4 °F - 71.6 °F 94% 29.96 in 7.0 mi Calm Calm - N/A   Clear
1:35 AM 73.4 °F - 71.6 °F 94% 29.96 in 8.0 mi Calm Calm - N/A   Clear
1:55 AM 71.6 °F - 71.6 °F 100% 29.96 in 8.0 mi Calm Calm - N/A   Clear
2:15 AM 71.6 °F - 71.6 °F 100% 29.95 in 7.0 mi Calm Calm - N/A   Clear
2:35 AM 71.6 °F - 71.6 °F 100% 29.95 in 7.0 mi Calm Calm - N/A   Clear
2:55 AM 73.4 °F - 71.6 °F 94% 29.95 in 8.0 mi Calm Calm - N/A   Clear
3:15 AM 73.4 °F - 73.4 °F 100% 29.94 in 8.0 mi Calm Calm - N/A   Clear
3:35 AM 75.2 °F - 73.4 °F 94% 29.94 in 7.0 mi Calm Calm - N/A   Clear
3:55 AM 73.4 °F - 73.4 °F 100% 29.94 in 7.0 mi Calm Calm - N/A   Clear
4:15 AM 73.4 °F - 73.4 °F 100% 29.94 in 6.0 mi Calm Calm - N/A   Clear
4:35 AM 73.4 °F - 73.4 °F 100% 29.94 in 5.0 mi Calm Calm - N/A   Partly Cloudy
4:55 AM 73.4 °F - 73.4 °F 100% 29.94 in 7.0 mi Calm Calm - N/A   Partly Cloudy
5:15 AM 75.2 °F - 75.2 °F 100% 29.94 in 7.0 mi WSW 4.6 mph - N/A   Partly Cloudy
5:35 AM 75.2 °F - 75.2 °F 100% 29.93 in 7.0 mi SW 5.8 mph - N/A   Clear
5:55 AM 75.2 °F - 75.2 °F 100% 29.94 in 7.0 mi Calm Calm - N/A   Clear
6:15 AM 75.2 °F - 75.2 °F 100% 29.94 in 7.0 mi Calm Calm - N/A   Clear
6:35 AM 73.4 °F - 73.4 °F 100% 29.94 in 6.0 mi Calm Calm - N/A   Clear
6:50 AM 73.4 °F - 73.4 °F 100% 29.94 in 5.0 mi Calm Calm - N/A   Clear
7:50 AM 73.4 °F - 73.4 °F 100% 29.97 in 7.0 mi Calm Calm - N/A   Clear
8:50 AM 78.8 °F - 75.2 °F 89% 29.98 in 10.0 mi Variable 4.6 mph - N/A   Clear
9:50 AM 84.2 °F 92.3 °F 75.2 °F 74% 29.98 in 10.0 mi Variable 4.6 mph - N/A   Clear
10:50 AM 89.6 °F 99.8 °F 75.2 °F 62% 29.98 in 10.0 mi Variable 5.8 mph - N/A   Clear
11:50 AM 91.4 °F 102.5 °F 75.2 °F 59% 29.98 in 10.0 mi Variable 5.8 mph - N/A   Scattered Clouds
12:50 PM 93.2 °F 102.4 °F 73.4 °F 52% 29.97 in 10.0 mi Variable 5.8 mph - N/A   Mostly Cloudy
1:50 PM 93.2 °F 102.4 °F 73.4 °F 52% 29.94 in 5.0 mi WSW 8.1 mph - N/A   Haze
2:50 PM 93.2 °F 100.5 °F 71.6 °F 49% 29.92 in 5.0 mi WSW 4.6 mph - N/A   Haze
3:50 PM 93.2 °F 100.5 °F 71.6 °F 49% 29.89 in 5.0 mi Variable 5.8 mph - N/A   Haze
4:50 PM 95.0 °F 103.2 °F 71.6 °F 47% 29.87 in 5.0 mi Calm Calm - N/A   Haze
5:50 PM 91.4 °F 98.4 °F 71.6 °F 52% 29.88 in 10.0 mi Variable 4.6 mph - N/A   Scattered Clouds
6:42 PM 78.8 °F - 75.2 °F 89% 29.92 in 1.0 mi East 18.4 mph 31.1 mph N/A Rain , Thunderstorm Heavy Thunderstorms and Rain
6:50 PM 77.0 °F - 75.2 °F 94% 29.93 in 0.2 mi NNE 16.1 mph - N/A Rain , Thunderstorm Thunderstorms and Rain
7:34 PM 75.2 °F - 75.2 °F 100% 29.91 in 3.0 mi ENE 6.9 mph - N/A Rain Light Rain
7:50 PM 75.2 °F - 75.2 °F 100% 29.91 in 5.0 mi East 9.2 mph - N/A Rain Light Rain
8:15 PM 75.2 °F - 75.2 °F 100% 29.92 in 5.0 mi ENE 3.5 mph - N/A Rain , Thunderstorm Light Rain
8:35 PM 75.2 °F - 75.2 °F 100% 29.93 in 5.0 mi Calm Calm - N/A Thunderstorm Partly Cloudy
8:55 PM 77.0 °F - 75.2 °F 94% 29.94 in 6.0 mi SE 4.6 mph - N/A   Partly Cloudy
9:15 PM 77.0 °F - 75.2 °F 94% 29.96 in 8.0 mi WSW 6.9 mph - N/A   Mostly Cloudy
9:35 PM 75.2 °F - 73.4 °F 94% 29.97 in 10.0 mi WNW 10.4 mph - N/A Thunderstorm Overcast
9:55 PM 75.2 °F - 73.4 °F 94% 29.98 in 8.0 mi West 13.8 mph - N/A   Overcast
10:15 PM 73.4 °F - 73.4 °F 100% 29.98 in 7.0 mi Calm Calm - N/A Thunderstorm Thunderstorm
10:35 PM 73.4 °F - 73.4 °F 100% 29.97 in 5.0 mi NNW 6.9 mph - N/A Rain Light Rain
10:55 PM 73.4 °F - 73.4 °F 100% 29.96 in 3.0 mi NNE 4.6 mph - 0.03 in Rain Light Rain
11:15 PM 73.4 °F - 73.4 °F 100% 29.95 in 6.0 mi Calm Calm - N/A   Partly Cloudy
11:35 PM 73.4 °F - 73.4 °F 100% 29.94 in 5.0 mi Calm Calm - N/A   Clear
11:55 PM 73.4 °F - 73.4 °F 100% 29.93 in 4.0 mi Calm Calm - N/A   Clear